Location: Bize
(43.0431°N, 0.4723°E)
Time: 01:20:49
(UTC+00:00)

Daily predictions for brighter satellites

Satellite Brightness Start Highest point End
(mag) Time Altitude Azimuth Time Altitude Azimuth Time Altitude Azimuth
Lacrosse 5 4.0 00:01:46 10° WNW 00:03:12 15° W 00:03:12 15° W
Cosmos 1655 Rocket 4.2 00:07:30 50° SW 00:08:49 61° W 00:15:01 10° N
STARLINK-1104 4.3 00:04:57 10° NW 00:08:13 51° NNW 00:08:13 51° NNW
S3M 4.1 00:05:37 10° NNW 00:11:38 58° W 00:12:36 52° SW
COSMOS 2455 3.1 00:11:40 49° SE 00:12:03 49° ESE 00:17:49 10° NE
Cosmos 1726 3.3 00:08:22 10° NNW 00:10:54 41° NNW 00:10:54 41° NNW
Cosmos 2263 4.3 00:12:25 57° WSW 00:13:21 67° WNW 00:18:58 10° NNE
STARLINK-1144 4.4 00:09:56 10° NW 00:12:59 47° NW 00:12:59 47° NW
Cosmos 2228 3.6 00:11:38 10° N 00:15:32 49° ENE 00:15:32 49° ENE
Meteor 2-15 Rocket 4.4 00:13:26 10° N 00:19:37 79° E 00:20:55 58° SSE
Cosmos 1953 3.3 00:16:30 10° NNW 00:19:26 40° NW 00:19:26 40° NW
Cosmos 1271 Rocket 4.5 00:21:40 24° WNW 00:21:40 24° WNW 00:24:28 10° NNW
Cosmos 1340 Rocket 3.5 00:17:58 10° NNW 00:21:08 51° NW 00:21:08 51° NW
Cosmos 1992 Rocket 4.2 00:25:15 54° W 00:25:52 58° WNW 00:31:01 10° NNE
COSMOS 2487 3.9 00:24:56 10° N 00:27:18 37° NNE 00:27:18 37° NNE
Cosmos 1833 4.0 00:23:35 10° NNW 00:29:13 77° WSW 00:29:45 70° SSW
USA 215 4.2 00:33:06 30° WSW 00:33:06 30° WSW 00:37:58 10° WNW
Cosmos 1626 3.6 00:34:31 31° ENE 00:34:31 31° ENE 00:37:12 10° NNE
Cosmos 1656 Rocket 3.9 00:33:51 53° WSW 00:34:55 64° WNW 00:40:30 10° NNE
In-Cosmos 22 4.4 00:35:37 49° WSW 00:36:15 52° WNW 00:41:26 10° N
FALCON 9 R/B 3.2 00:38:25 44° SSE 00:38:44 44° SSE 00:53:36 10° E
Cosmos 1606 Rocket 3.6 00:34:51 10° N 00:38:48 73° NNW 00:38:48 73° NNW
EO 1 Delta rocket 4.5 00:37:32 10° N 00:43:43 57° WNW 00:44:41 50° WSW
CZ-4 R/B 4.0 00:40:19 10° N 00:45:05 60° WNW 00:45:23 59° W
Meteor 2-21 4.4 00:45:34 55° SSE 00:46:59 79° E 00:53:11 10° N
Cosmos 2297 Rocket 4.5 00:44:08 10° N 00:48:23 21° NE 00:52:37 10° E
SL-4 R/B 2.3 00:49:12 81° ESE 00:49:12 81° ESE 00:53:53 10° ENE
NOSS 3-2 (C) 4.2 00:44:20 10° NW 00:51:53 59° WSW 00:54:29 43° S
Cosmos 1674 3.8 00:53:21 37° NW 00:53:21 37° NW 00:56:12 10° N
PSLV R/B 4.0 00:49:14 10° N 00:53:44 54° WNW 00:53:53 53° W
ATLAS CENTAUR R/B 1.4 00:56:56 82° N 00:56:56 82° N 01:00:59 10° NNE
SL-19 R/B 4.2 00:53:28 10° NNE 00:58:54 78° ESE 01:00:03 57° S
NOSS 3-4 (A) 3.7 00:57:31 39° WSW 00:59:37 60° NW 01:05:53 10° NNE
NOSS 3-4 (C) 3.7 00:57:37 39° WSW 00:59:42 61° NW 01:06:00 10° NNE
SL-16 R/B 3.4 00:56:01 19° SE 01:00:03 45° ENE 01:05:52 10° N
BREEZE-M R/B 3.7 01:01:07 44° ESE 01:01:07 44° ESE 01:03:43 10° ENE
Cosmos 1777 Rocket 4.0 00:55:20 10° NNW 01:00:35 75° ENE 01:01:54 50° SE
Timation 2 Rocket 4.3 00:54:26 10° NNW 01:00:45 62° ENE 01:04:30 24° SE
Spot 1 4.2 01:00:54 68° SE 01:01:26 80° ENE 01:06:16 10° NNW
ATLAS 3B R/B 2.7 01:00:56 10° NW 01:07:46 85° NE 01:12:43 21° SE
Cosmos 1244 Rocket 4.5 01:07:54 50° SSW 01:09:33 72° W 01:15:46 10° N
BREEZE-M DEB (TANK) 3.3 01:12:38 29° NNE 01:12:38 29° NNE 01:13:56 10° NE
CENTAUR R/B 3.4 01:03:47 10° NW 01:11:43 53° WSW 01:14:47 38° SSW
Meteor 2-21 Rocket 4.4 01:11:40 50° SSW 01:13:23 85° W 01:19:36 10° N
Cosmos 1745 Rocket 4.1 01:12:45 41° SSE 01:14:55 66° E 01:21:00 10° NNE
Cosmos 1892 Rocket 3.9 01:14:51 50° W 01:14:56 50° WNW 01:19:14 10° N
Cosmos 1867 3.5 01:10:50 10° NW 01:16:12 60° WSW 01:16:44 57° SW
RESURS DK-1 2.2 01:19:17 86° ESE 01:19:17 86° ESE 01:23:26 10° NNE
Meteor 1-24 Rocket 3.7 01:22:03 51° SW 01:23:07 63° WNW 01:28:28 10° N
Cosmos 2227 Rocket 3.8 01:19:13 10° N 01:24:18 32° NE 01:29:22 10° ESE
Cosmos 2369 Rocket 4.4 01:21:02 10° W 01:24:33 17° NW 01:28:05 10° N
Cosmos 1356 Rocket 3.7 01:20:57 10° N 01:25:04 62° ENE 01:25:49 51° SE
ATLAS 2AS CENTAUR R/B 3.7 01:23:17 21° WSW 01:28:30 47° NW 01:36:08 10° NNE
CZ-2D R/B 2.4 01:23:24 10° NNE 01:28:37 60° E 01:30:15 41° SSE
Helios 1B rocket 4.2 01:25:40 10° NNW 01:28:45 21° WNW 01:29:11 20° WNW
ADEOS II 3.8 01:26:51 10° NE 01:31:07 25° E 01:34:07 15° SE
CZ-4C R/B 3.4 01:30:46 62° SSE 01:31:25 82° ENE 01:35:45 10° N
DELTA 2 DEB (DPAF) 4.1 01:34:11 61° SW 01:34:33 64° WSW 01:39:00 10° NNW
STARLINK-1228 3.8 01:31:47 10° NW 01:35:03 52° NNE 01:38:20 10° ESE
STARLINK-1234 3.8 01:33:13 10° NW 01:36:16 48° NNE 01:37:02 37° ENE
STARLINK-1212 4.4 01:34:38 10° NW 01:37:35 37° NNE 01:40:30 10° E
STARLINK-1105 4.3 01:35:07 10° NW 01:38:02 37° NNE 01:40:57 10° E
Resurs 1-4 Rocket 2.1 01:33:05 10° NNE 01:38:24 75° ESE 01:40:11 42° S
USA 81 4.4 01:36:19 33° SSE 01:38:30 58° E 01:43:41 10° NNE
STARLINK-1209 3.6 01:35:27 10° NW 01:38:34 53° NNE 01:38:42 53° NE
STARLINK-1247 4.3 01:36:01 10° NW 01:38:58 38° NNE 01:41:55 10° E
STARLINK-52 3.5 01:39:41 58° NNE 01:39:41 58° NNE 01:42:28 10° NE
STARLINK-1227 4.3 01:36:29 10° NW 01:39:24 38° NNE 01:42:20 10° E
STARLINK-1226 4.3 01:37:20 10° NW 01:40:17 39° NNE 01:43:14 10° E
STARLINK-1215 4.2 01:38:15 10° NW 01:41:14 40° NNE 01:44:12 10° E
STARLINK-1217 4.2 01:40:01 10° NW 01:43:00 41° NNE 01:45:59 10° ESE
STARLINK-1229 4.1 01:40:56 10° NW 01:43:56 42° NNE 01:46:55 10° ESE
STARLINK-1270 4.1 01:41:48 10° NW 01:44:48 42° NNE 01:47:48 10° ESE
NPP 3.7 01:40:26 10° NNE 01:45:51 75° ESE 01:47:56 38° S
STARLINK-1189 4.0 01:43:38 10° NW 01:46:39 44° NNE 01:49:39 10° ESE
STARLINK-1188 4.0 01:44:30 10° NW 01:47:32 45° NNE 01:50:33 10° ESE
STARLINK-1235 3.4 01:45:09 10° NW 01:48:13 57° NNE 01:51:16 10° ESE
GEOS 3 Rocket 4.2 01:48:43 36° WSW 01:48:43 36° WSW 01:53:23 10° NW
STARLINK-1187 3.7 01:45:36 10° NW 01:48:38 51° NNE 01:51:40 10° ESE
Meteor 1-21 Rocket 4.4 01:46:48 32° SSE 01:49:20 65° E 01:54:57 10° NNE
STARLINK-1191 3.9 01:46:59 10° NW 01:49:59 46° NNE 01:53:00 10° ESE
Cosmos 1656 4.1 01:48:20 33° S 01:50:41 55° ESE 01:56:12 10° NNE
STARLINK-1221 3.8 01:47:51 10° NW 01:50:51 47° NNE 01:53:52 10° ESE
Cosmos 2058 Rocket 4.2 01:47:17 10° NNW 01:51:01 28° W 01:51:01 28° W
STARLINK-1222 3.8 01:48:44 10° NW 01:51:45 48° NNE 01:54:46 10° ESE
STARLINK-1214 3.8 01:49:38 10° NW 01:52:40 49° NNE 01:55:41 10° ESE
CZ-4C R/B 3.3 01:50:43 21° SSE 01:52:41 28° ESE 01:57:20 10° NE
Cosmos 2084 3.5 01:52:18 52° SW 01:53:20 80° NW 01:57:49 10° NE
SL-08 ROCKET BODY 4.4 01:52:04 38° SW 01:54:16 64° W 02:00:06 10° N
SJ 16-02 2.2 01:51:06 10° N 01:55:24 48° ENE 01:59:17 12° SE
COSMOS 2455 4.1 01:54:47 19° W 01:58:11 32° NW 02:03:33 10° NNE
Cosmos 1300 4.1 01:57:18 10° NNW 02:00:00 25° WNW 02:00:00 25° WNW
Cosmos 921 Rocket 3.8 02:00:21 32° W 02:01:13 36° WNW 02:05:11 10° N
Meteor 2-10 Rocket 3.6 01:57:17 10° N 02:02:38 75° ENE 02:06:01 22° SSE
Cosmos 1709 Rocket 3.9 02:01:48 30° S 02:05:01 88° E 02:11:11 10° N
Cosmos 1626 Rocket 4.2 02:06:42 35° WSW 02:07:33 39° WNW 02:11:38 10° N
Cosmos 1626 4.2 02:09:03 15° WNW 02:09:12 15° WNW 02:11:26 10° NNW
STARLINK-1320 2.7 02:14:52 75° SSW 02:15:03 82° SE 02:18:10 10° NE
STARLINK-1322 2.7 02:15:11 75° SSW 02:15:23 82° SE 02:18:31 10° NE
STARLINK-1324 2.7 02:15:32 75° SSW 02:15:44 83° SE 02:18:52 10° NE
STARLINK-1294 2.7 02:15:47 74° SSW 02:16:01 83° SE 02:19:09 10° NE
STARLINK-1261 2.6 02:16:10 74° SSW 02:16:24 84° SE 02:19:31 10° NE
STARLINK-1325 2.7 02:16:30 73° SW 02:16:45 85° SSE 02:19:53 10° NE
STARLINK-1333 2.7 02:16:48 73° SW 02:17:03 85° SE 02:20:11 10° NE
STARLINK-1334 2.7 02:17:07 72° SW 02:17:24 86° SE 02:20:32 10° NE
Cosmos 2219 3.1 02:11:46 10° NNW 02:17:26 73° WSW 02:22:14 14° SSE
STARLINK-1326 2.7 02:17:28 71° SW 02:17:45 86° SE 02:20:52 10° NE
STARLINK-1323 2.7 02:17:47 71° SW 02:18:05 87° SE 02:21:12 10° NE
Cosmos 1980 Rocket 3.8 02:13:41 11° SSE 02:18:06 26° ESE 02:22:42 10° NE
STARLINK-1338 3.0 02:17:39 56° SSW 02:18:17 78° SE 02:21:46 10° ENE
STARLINK-1349 2.7 02:18:06 70° SW 02:18:25 88° SSE 02:21:33 10° NE
STARLINK-1336 2.7 02:18:28 69° SW 02:18:47 88° SSE 02:21:55 10° NE
STARLINK-1331 2.7 02:18:45 69° SW 02:19:06 89° SE 02:22:13 10° NE
STARLINK-1344 2.7 02:19:05 68° SW 02:19:26 89° SE 02:22:33 10° NE
STARLINK-1343 2.7 02:19:25 67° SW 02:19:46 90° WSW 02:22:54 10° NE
STARLINK-1346 2.7 02:19:43 65° SW 02:20:08 89° NNW 02:23:18 10° NE
STARLINK-1328 2.7 02:20:05 66° WSW 02:20:28 89° NW 02:23:36 10° NE
STARLINK-1354 2.7 02:20:22 65° WSW 02:20:46 88° NW 02:23:54 10° NE
Cosmos 1328 3.9 02:19:18 31° S 02:21:06 70° E 02:25:05 10° NNE
STARLINK-1347 2.7 02:20:44 64° WSW 02:21:08 87° NW 02:24:16 10° NE
STARLINK-1357 2.7 02:21:02 64° WSW 02:21:27 87° NW 02:24:35 10° NE
STARLINK-1335 2.7 02:21:22 63° WSW 02:21:48 86° NW 02:24:56 10° NE
STARLINK-1327 2.7 02:21:41 62° WSW 02:22:07 86° NW 02:25:15 10° NE
STARLINK-1371 3.0 02:21:31 51° SW 02:22:19 84° SE 02:25:49 10° NE
STARLINK-1340 2.7 02:22:01 61° WSW 02:22:29 85° NW 02:25:37 10° NE
STARLINK-1356 2.8 02:22:21 61° WSW 02:22:49 84° NW 02:25:57 10° NE
STARLINK-1345 2.8 02:22:41 60° WSW 02:23:10 84° NW 02:26:17 10° NE
UNK 4.4 02:22:20 32° SW 02:23:24 36° W 02:27:39 10° NNW
STARLINK-1355 2.8 02:22:59 59° WSW 02:23:30 83° NW 02:26:38 10° NE
STARLINK-1321 2.8 02:23:18 58° WSW 02:23:49 83° NW 02:26:57 10° NE
ERS-2 3.9 02:20:39 10° SE 02:23:54 31° ENE 02:27:11 10° N
STARLINK-1358 2.8 02:23:39 58° WSW 02:24:11 82° NW 02:27:19 10° NE
STARLINK-1341 3.0 02:23:29 48° SW 02:24:21 87° SSE 02:27:52 10° NE
STARLINK-1332 2.8 02:23:57 57° WSW 02:24:30 81° NW 02:27:37 10° NE
STARLINK-1348 2.8 02:24:18 56° WSW 02:24:51 81° NW 02:27:59 10° NE
STARLINK-1330 2.8 02:24:36 56° WSW 02:25:10 80° NW 02:28:18 10° NE
STARLINK-1363 2.8 02:24:56 55° WSW 02:25:30 80° NW 02:28:38 10° NE
STARLINK-1337 2.8 02:25:15 54° WSW 02:25:51 79° NNW 02:28:59 10° NE
STARLINK-1342 2.8 02:25:35 54° WSW 02:26:12 79° NNW 02:29:19 10° NE
STARLINK-1374 3.1 02:25:26 46° SW 02:26:24 90° NNW 02:29:56 10° NE
STARLINK-1364 2.8 02:25:55 53° WSW 02:26:32 78° NW 02:29:40 10° NE
STARLINK-1376 2.8 02:26:15 52° WSW 02:26:53 77° NW 02:30:01 10° NE
STARLINK-1360 2.8 02:26:30 51° WSW 02:27:09 77° NW 02:30:17 10° NE
STARLINK-1361 2.8 02:26:56 51° WSW 02:27:36 76° NW 02:30:43 10° NE
STARLINK-1367 2.9 02:27:10 50° WSW 02:27:51 76° NW 02:31:01 10° NE
STARLINK-1245 4.4 02:23:59 10° NW 02:28:03 53° NNE 02:32:07 10° ESE
STARLINK-1366 2.9 02:27:33 50° WSW 02:28:14 75° NW 02:31:21 10° NE
STARLINK-1339 3.1 02:27:27 43° WSW 02:28:29 86° NW 02:32:00 10° NE
SL-4 R/B 3.7 02:24:46 10° W 02:29:13 36° NNW 02:33:32 10° NE
IRS-1C 4.3 02:24:15 10° NNE 02:29:35 69° ESE 02:33:25 19° S
AQUA 4.2 02:25:21 10° N 02:29:58 51° WNW 02:32:11 28° SW
Cosmos 1812 Rocket 4.2 02:26:07 10° NNW 02:30:15 38° W 02:31:37 30° SW
STARLINK-1377 3.1 02:29:28 41° WSW 02:30:35 83° NW 02:34:06 10° NE
STARLINK-1353 3.1 02:31:17 39° WSW 02:32:27 80° NW 02:35:56 10° NE
CZ-4B R/B 4.0 02:27:33 10° N 02:32:29 49° WNW 02:35:13 25° SW
Cosmos 2297 Rocket 2.1 02:27:21 10° NNW 02:32:58 68° WSW 02:38:33 10° SSE
STARLINK-1233 4.3 02:28:57 10° NW 02:33:02 57° NNE 02:37:07 10° ESE
STARLINK-1375 3.1 02:33:04 37° WSW 02:34:18 77° NW 02:37:48 10° NE
Cosmos 540 Rocket 4.1 02:32:22 16° S 02:36:12 49° ESE 02:41:09 10° NNE
ATLAS CENTAUR R/B 3.9 02:33:57 10° WNW 02:36:13 14° NW 02:38:25 10° N
Cosmos 2082 4.1 02:31:01 10° NNW 02:36:41 67° ENE 02:42:16 10° SSE
STARLINK-1350 3.2 02:35:22 35° WSW 02:36:42 73° NW 02:40:11 10° NE
FALCON 9 DEB 4.4 02:35:24 20° W 02:37:18 36° NNW 02:40:32 10° NE
STARLINK-1204 4.1 02:33:56 10° NW 02:38:03 61° NNE 02:42:09 10° ESE
Cosmos 990 Rocket 3.9 02:33:35 10° NNW 02:38:51 74° WSW 02:44:03 10° SSE
STARLINK-1352 3.3 02:37:40 32° WSW 02:39:08 70° NW 02:42:39 10° NE
CBERS-1 4.1 02:34:20 10° N 02:39:23 62° WNW 02:42:28 24° SW
Cosmos 1825 Rocket 3.6 02:38:21 28° SSW 02:40:29 60° W 02:44:47 10° N
Cosmos 2278 4.4 02:36:08 15° S 02:40:33 50° ESE 02:45:59 10° NE
STARLINK-1368 3.3 02:39:45 30° WSW 02:41:18 67° NW 02:44:50 10° NE
Meteor 1-11 4.4 02:38:11 15° S 02:42:56 71° E 02:48:32 10° NNE
Cosmos 1455 2.7 02:39:28 10° NNW 02:42:59 40° W 02:44:15 29° SW
STARLINK-1238 4.0 02:38:52 10° NW 02:43:01 66° NNE 02:47:07 10° ESE
STARLINK-1369 3.4 02:41:37 29° WSW 02:43:14 65° NNW 02:46:43 10° NE
Meteor 1-28 Rocket 4.0 02:39:58 10° SSE 02:43:38 52° ENE 02:47:19 10° N
SL-16 R/B 3.4 02:41:06 22° SW 02:43:47 30° W 02:49:09 10° NW
CZ-2D R/B 4.5 02:39:54 10° NNE 02:43:50 43° E 02:47:41 11° S
STARLINK-1372 3.5 02:43:57 27° WSW 02:45:42 62° NNW 02:49:12 10° NE
USA 234 4.2 02:39:57 10° ENE 02:45:54 36° SE 02:51:07 13° S
Cosmos 2074 Rocket 4.2 02:40:25 12° S 02:46:20 74° E 02:52:38 10° NNE
ATLAS CENTAUR R/B 2.3 02:43:11 10° NW 02:46:30 66° SW 02:54:34 10° SE
STARLINK-1378 3.5 02:46:05 25° WSW 02:47:55 59° NNW 02:51:26 10° NE
STARLINK-1201 3.9 02:43:52 10° NW 02:48:01 72° NE 02:52:08 10° ESE
Cosmos 841 Rocket 3.7 02:44:27 17° S 02:48:26 70° ESE 02:53:40 10° NNE
STARLINK-1329 3.5 02:46:35 25° WSW 02:48:27 59° NNW 02:51:58 10° NE
STARLINK-1365 3.6 02:47:17 24° WSW 02:49:11 56° NNW 02:52:40 10° NE
STARLINK-1379 3.6 02:48:13 24° WSW 02:50:09 57° NNW 02:53:39 10° NE
STARLINK-1362 3.6 02:48:47 23° WSW 02:50:44 57° NNW 02:54:15 10° NE
GP-B 3.8 02:47:10 10° NNW 02:51:17 38° W 02:53:37 22° SW
IRS-1D 4.0 02:47:08 10° N 02:52:16 49° WNW 02:55:45 20° SW
STARLINK-1206 3.7 02:48:50 10° NW 02:53:00 77° NE 02:57:08 10° ESE
STARLINK-1373 3.7 02:50:59 22° WSW 02:53:03 54° NNW 02:56:33 10° NE
COBE Rocket 4.1 02:48:43 10° SSE 02:53:36 77° ENE 02:58:39 10° N
Cosmos-2242 3.3 02:50:30 10° NNW 02:54:35 47° W 02:57:21 19° SSW
NOSS 7 (E) 4.4 02:53:04 25° SW 02:55:03 78° NW 02:58:12 10° NNE
STARLINK-1390 3.7 02:52:58 21° WSW 02:55:06 52° NNW 02:58:35 10° NE
Cosmos 1400 Rocket 3.0 02:51:39 10° N 02:55:47 75° E 02:59:54 10° SSE
Cosmos 2221 4.1 02:52:31 10° N 02:56:32 36° ENE 03:00:33 10° SE
ATLAS 3B R/B 4.0 02:53:04 10° WNW 02:57:42 19° WSW 02:59:50 17° SW
Cosmos 2184 Rocket 4.0 02:51:53 11° S 02:57:52 86° E 03:04:04 10° N
STARLINK-1205 3.6 02:53:49 10° NW 02:57:58 84° NE 03:02:07 10° SE
SL-08 R/B 3.3 02:54:27 10° S 02:59:09 66° WSW 03:03:47 10° NNW
CZ-4C R/B 4.1 02:56:10 10° SSE 02:59:36 48° ENE 03:03:07 10° N
STARLINK-1218 3.6 02:58:46 10° NW 03:02:56 90° WSW 03:07:05 10° SE
Cosmos 1703 4.2 03:02:09 20° SW 03:04:11 32° WNW 03:07:46 10° N
Cosmos 1763 Rocket 4.0 03:03:46 18° SW 03:07:18 43° WNW 03:12:11 10° N
IRS-P3 4.5 03:02:43 10° N 03:07:53 51° WNW 03:12:05 15° SW
STARLINK-1254 3.5 03:03:46 10° NW 03:07:55 83° SW 03:12:04 10° SE
CZ-2D R/B 3.8 03:04:32 10° NNW 03:08:11 19° WNW 03:11:34 11° WSW
Cosmos 2227 Rocket 2.6 03:03:10 10° NW 03:08:26 40° WSW 03:13:40 10° S
Cosmos 2181 Rocket 4.5 03:03:13 10° NNW 03:09:15 45° W 03:15:15 10° SSW
Cosmos 1697 Rocket 2.8 03:04:56 17° SW 03:09:22 65° WNW 03:15:01 10° NNE
ADEOS II 2.6 03:06:01 10° N 03:10:58 43° WNW 03:15:03 15° SW
STARLINK-1228 4.4 03:08:57 10° W 03:11:26 19° SW 03:13:55 10° S
STARLINK-1231 3.5 03:08:46 10° WNW 03:12:55 77° SW 03:17:02 10° SE
STARLINK-1212 3.9 03:10:40 10° WNW 03:13:17 25° SW 03:15:53 10° SSE
STARLINK-1105 3.9 03:11:08 10° WNW 03:13:44 24° SW 03:16:19 10° SSE
STARLINK-1247 3.9 03:12:04 10° WNW 03:14:40 24° SW 03:17:15 10° S
STARLINK-1227 3.9 03:12:32 10° WNW 03:15:06 24° SW 03:17:39 10° S
SL-16 R/B 4.3 03:11:12 10° SSE 03:15:33 23° E 03:19:54 10° NE
Cosmos 1315 Rocket 4.1 03:12:01 10° N 03:15:47 42° ENE 03:19:30 10° SSE
STARLINK-1226 4.0 03:13:24 10° WNW 03:15:58 23° SW 03:18:32 10° S
STARLINK-1215 4.0 03:14:22 10° W 03:16:55 23° SW 03:19:28 10° S
Resurs 1-4 Rocket 4.0 03:14:27 10° NNW 03:17:35 16° WNW 03:20:43 10° W
CZ-2C R/B 3.0 03:14:06 10° NNE 03:17:47 65° ESE 03:21:29 10° S
STARLINK-1232 3.5 03:13:45 10° WNW 03:17:53 70° SW 03:22:00 10° SE
STARLINK-1217 4.0 03:16:10 10° W 03:18:40 22° SW 03:21:10 10° S
STARLINK-1229 4.1 03:17:05 10° W 03:19:35 22° SW 03:22:04 10° S
H-2A R/B 2.0 03:15:43 10° S 03:20:00 75° WSW 03:24:24 10° NNW
STARLINK-1270 4.1 03:17:58 10° W 03:20:26 21° SW 03:22:54 10° S
STARLINK-1189 4.2 03:19:51 10° W 03:22:16 21° SW 03:24:41 10° S
ARIANE 5 R/B 2.8 03:17:38 10° N 03:22:34 53° WNW 03:27:15 11° SW
STARLINK-1208 3.6 03:18:43 10° WNW 03:22:50 64° SW 03:26:55 10° SE
BREEZE-M R/B 3.9 03:19:45 10° WNW 03:22:54 27° NNW 03:25:10 10° NE
STARLINK-1188 4.2 03:20:45 10° W 03:23:09 20° SW 03:25:32 10° S
STARLINK-1187 4.4 03:22:02 10° W 03:24:11 17° SW 03:26:19 10° S
STARLINK-1191 4.2 03:23:18 10° W 03:25:35 19° SW 03:27:52 10° S
STARLINK-1221 4.3 03:24:10 10° W 03:26:27 19° SW 03:28:43 10° S
STARLINK-1222 4.3 03:25:06 10° W 03:27:20 18° SW 03:29:34 10° S
STARLINK-1271 3.6 03:23:44 10° WNW 03:27:49 58° SW 03:31:53 10° SE
BREEZE-M DEB (TANK) 1.1 03:26:07 10° WNW 03:28:12 54° SSW 03:30:42 10° SE
STARLINK-1214 4.3 03:26:02 10° W 03:28:14 18° SW 03:30:25 10° S
Spot 4 Rocket 4.1 03:23:24 10° N 03:28:30 65° WNW 03:33:34 10° SSW
SL-24 DEB 4.4 03:24:17 10° N 03:28:56 78° E 03:33:32 10° S
Cosmos 2154 Rocket 4.0 03:23:32 10° S 03:29:50 84° W 03:36:09 10° N
Lacrosse 4 Rocket 1.4 03:25:43 10° NNW 03:30:04 74° WSW 03:34:14 10° SSE
Cosmos 2058 3.6 03:27:08 10° S 03:31:12 56° E 03:35:19 10° NNE
Meteor 1-27 4.2 03:25:44 10° NNW 03:31:14 63° W 03:36:42 10° S
USA 129 0.7 03:30:22 10° N 03:32:16 74° WNW 03:33:05 19° SSW
STARLINK-1154 3.7 03:28:44 10° WNW 03:32:47 53° SW 03:36:49 10° SE
SJ 16-02 3.0 03:30:50 10° WNW 03:33:33 16° W 03:36:11 10° SW
Cosmos 2298 Rocket 4.1 03:28:51 10° NNW 03:34:11 88° ENE 03:39:30 10° SSE
IDEFIX/ARIANE 42P 2.6 03:31:15 10° N 03:36:32 79° WNW 03:41:47 10° SSW
STARLINK-1197 3.8 03:33:44 10° WNW 03:37:44 48° SW 03:41:44 10° SSE
STARLINK 1040 3.5 03:35:58 10° SSW 03:38:17 35° SE 03:40:41 10° ENE
CZ-4C R/B 2.8 03:35:58 10° WSW 03:40:48 45° NW 03:46:33 10° NNE
Cosmos 1937 Rocket 4.4 03:37:22 10° NW 03:41:50 29° W 03:46:19 10° SSW
STARLINK-1198 3.9 03:38:43 10° WNW 03:42:40 44° SW 03:46:36 10° SSE
Cosmos 2369 4.5 03:37:58 10° SW 03:43:11 38° WNW 03:48:27 10° N
Cosmos 1842 Rocket 3.8 03:40:11 10° NNW 03:44:34 54° W 03:48:54 10° S
Cosmos 1408 3.9 03:42:48 10° SSE 03:46:19 42° E 03:49:50 10° NNE
Iridium 2 4.5 03:43:49 10° NNW 03:47:12 33° W 03:50:35 10° SSW
STARLINK-1199 4.0 03:43:46 10° WNW 03:47:40 40° SW 03:51:32 10° SSE
Meteor 2-2 Rocket 4.4 03:42:59 10° NNW 03:49:01 76° W 03:55:01 10° S
Uosat 12 SS-18 rocket 4.0 03:45:04 10° NW 03:49:20 68° WSW 03:53:57 10° SSE
STARLINK-1269 4.5 03:45:55 10° NW 03:50:00 55° NNE 03:54:05 10° ESE
STARLINK-1210 4.2 03:48:47 10° WNW 03:52:36 36° SW 03:56:25 10° SSE
CZ-4B R/B 1.7 03:50:36 10° SSE 03:53:36 62° ENE 03:56:38 10° N
STARLINK-1200 4.3 03:50:54 10° NW 03:55:01 60° NNE 03:59:07 10° ESE
